BDR681 OTHH-HSSK

Flight info

Callsign BDR681
Flight time N/A
Altitude 36000
Route TULUB B457 NARMI N112 GETOT Q212 KIA G782 JDW B407 KAROX L311 PASIL PASIL1B
Aircraft B738/M-SDE2E3FGHIRWXY/LB1

Departure

Time 2026-05-04 16:20
Airport Hamad International Airport (OTHH)

Arrival

Time N/A
Airport Khartoum International Airport (HSSK)
Time Latitude Longitude Altitude Speed Heading
2026-05-04 15:57 25.28078 51.59767 21 ft 0 kts 68°
2026-05-04 16:08 25.28077 51.59764 21 ft 2 kts 68°
2026-05-04 16:08 25.28059 51.59714 21 ft 2 kts 71°
2026-05-04 16:09 25.28064 51.59689 21 ft 1 kts 167°
2026-05-04 16:09 25.28068 51.59688 21 ft 0 kts 169°
2026-05-04 16:12 25.28067 51.59688 21 ft 0 kts 169°
2026-05-04 16:13 25.28062 51.59688 21 ft 3 kts 186°
2026-05-04 16:14 25.27937 51.59697 21 ft 13 kts 159°
2026-05-04 16:14 25.27723 51.59791 21 ft 19 kts 158°
2026-05-04 16:15 25.27301 51.59978 21 ft 24 kts 158°
2026-05-04 16:16 25.27004 51.60108 21 ft 24 kts 158°
2026-05-04 16:16 25.26507 51.60327 21 ft 27 kts 158°
2026-05-04 16:17 25.26163 51.60478 21 ft 27 kts 159°
2026-05-04 16:18 25.25750 51.60659 21 ft 7 kts 165°
2026-05-04 16:18 25.25704 51.60639 21 ft 8 kts 247°
2026-05-04 16:19 25.25690 51.60579 21 ft 9 kts 264°
2026-05-04 16:19 25.25809 51.60429 21 ft 21 kts 338°
2026-05-04 16:20 25.27863 51.59529 149 ft 181 kts 338°
2026-05-04 16:20 25.30427 51.58402 1368 ft 216 kts 338°
2026-05-04 16:21 25.35092 51.56309 3229 ft 249 kts 338°
2026-05-04 16:22 25.38318 51.54885 4909 ft 248 kts 338°
2026-05-04 16:22 25.43287 51.52693 7083 ft 267 kts 335°
2026-05-04 16:23 25.48547 51.50351 9372 ft 276 kts 334°
2026-05-04 16:24 25.55955 51.47401 12235 ft 289 kts 336°
2026-05-04 16:25 25.59785 51.45895 13592 ft 295 kts 336°
2026-05-04 16:26 25.67063 51.41809 16132 ft 296 kts 300°
2026-05-04 16:26 25.67645 51.35935 17716 ft 300 kts 260°
2026-05-04 16:27 25.66934 51.31342 18881 ft 305 kts 261°
2026-05-04 16:28 25.65829 51.24295 20548 ft 314 kts 261°
2026-05-04 16:28 25.64687 51.17057 22105 ft 322 kts 261°
2026-05-04 16:29 25.63110 51.07121 24027 ft 333 kts 261°
2026-05-04 16:30 25.61893 50.99455 25355 ft 341 kts 261°
2026-05-04 16:31 25.61078 50.94156 25762 ft 359 kts 261°
2026-05-04 16:31 25.59738 50.85604 26117 ft 391 kts 261°
2026-05-04 16:32 25.58277 50.76391 26426 ft 418 kts 261°
2026-05-04 16:33 25.57251 50.69963 26874 ft 428 kts 261°
2026-05-04 16:33 25.56207 50.63445 27489 ft 432 kts 260°
2026-05-04 16:34 25.55150 50.56867 28068 ft 436 kts 260°
2026-05-04 16:34 25.54618 50.53561 28346 ft 438 kts 260°
2026-05-04 16:35 25.53000 50.43549 29213 ft 441 kts 260°
2026-05-04 16:35 25.51378 50.33555 30300 ft 439 kts 260°
2026-05-04 16:36 25.50838 50.30239 30639 ft 438 kts 260°
2026-05-04 16:36 25.49757 50.23616 31299 ft 437 kts 260°
2026-05-04 16:37 25.48677 50.17014 31933 ft 435 kts 260°
2026-05-04 16:37 25.48142 50.13748 31996 ft 438 kts 260°
2026-05-04 16:38 25.45963 50.00510 31996 ft 435 kts 260°
2026-05-04 16:39 25.43236 49.84041 31997 ft 435 kts 260°
2026-05-04 16:40 25.41041 49.70877 31997 ft 435 kts 260°
2026-05-04 16:41 25.38279 49.54417 31997 ft 435 kts 260°
2026-05-04 16:43 25.35500 49.37971 31997 ft 435 kts 260°
2026-05-04 16:43 25.33823 49.28098 31997 ft 435 kts 260°
2026-05-04 16:45 25.30450 49.08374 31997 ft 435 kts 260°
2026-05-04 16:46 25.27631 48.91990 31997 ft 435 kts 259°
2026-05-04 16:47 25.25351 48.78854 31997 ft 435 kts 259°
2026-05-04 16:48 25.23059 48.65713 31997 ft 435 kts 259°
2026-05-04 16:49 25.20760 48.52593 31997 ft 435 kts 259°
2026-05-04 16:50 25.18442 48.39440 32584 ft 435 kts 259°
2026-05-04 16:51 25.17287 48.32913 33258 ft 432 kts 259°
2026-05-04 16:51 25.16711 48.29659 33532 ft 432 kts 259°
2026-05-04 16:51 25.15556 48.23158 34101 ft 431 kts 259°
2026-05-04 16:52 25.14400 48.16670 34649 ft 430 kts 259°
2026-05-04 16:52 25.13824 48.13443 34915 ft 429 kts 259°
2026-05-04 16:53 25.12669 48.06983 35432 ft 428 kts 259°
2026-05-04 16:53 25.10935 47.97316 35994 ft 430 kts 259°
2026-05-04 16:54 25.10359 47.94113 35997 ft 433 kts 259°
2026-05-04 16:55 25.06801 47.74417 35997 ft 436 kts 259°
2026-05-04 16:56 25.03815 47.58013 35997 ft 436 kts 259°
2026-05-04 16:57 25.02016 47.48173 35997 ft 436 kts 259°
2026-05-04 16:58 24.99607 47.35062 35997 ft 436 kts 259°
2026-05-04 17:00 24.95972 47.15404 35997 ft 436 kts 259°
2026-05-04 17:01 24.92951 46.99029 35997 ft 436 kts 259°
2026-05-04 17:02 24.90482 46.85901 35996 ft 438 kts 259°
2026-05-04 17:03 24.88407 46.76107 35997 ft 439 kts 252°
2026-05-04 17:03 24.84725 46.66919 35997 ft 440 kts 245°
2026-05-04 17:04 24.79421 46.54788 35997 ft 440 kts 245°
2026-05-04 17:05 24.74121 46.42655 35997 ft 440 kts 245°
2026-05-04 17:06 24.70179 46.33553 35997 ft 440 kts 246°
2026-05-04 17:07 24.66657 46.25478 35997 ft 440 kts 245°
2026-05-04 17:07 24.63561 46.18401 35997 ft 440 kts 245°
2026-05-04 17:08 24.59578 46.09318 35997 ft 440 kts 245°
2026-05-04 17:09 24.56937 46.03257 35997 ft 440 kts 245°
2026-05-04 17:09 24.54276 45.97209 35997 ft 440 kts 245°
2026-05-04 17:10 24.47604 45.82111 35997 ft 440 kts 245°
2026-05-04 17:11 24.44934 45.76074 35997 ft 440 kts 245°
2026-05-04 17:12 24.40920 45.67075 35997 ft 440 kts 245°
2026-05-04 17:13 24.34186 45.52014 35997 ft 440 kts 245°
2026-05-04 17:14 24.28826 45.39962 35997 ft 440 kts 245°
2026-05-04 17:15 24.25246 45.31949 35997 ft 440 kts 245°
2026-05-04 17:16 24.19839 45.19933 35997 ft 440 kts 245°
2026-05-04 17:17 24.14412 45.07886 35997 ft 441 kts 245°
2026-05-04 17:18 24.08976 44.95837 35997 ft 441 kts 245°
2026-05-04 17:19 24.03566 44.83777 35997 ft 441 kts 245°
2026-05-04 17:20 23.98117 44.71749 35997 ft 441 kts 245°
2026-05-04 17:20 23.94030 44.62734 35996 ft 441 kts 246°
2026-05-04 17:21 23.90516 44.49950 35997 ft 440 kts 258°
2026-05-04 17:22 23.89135 44.43441 35997 ft 440 kts 257°
2026-05-04 17:23 23.86356 44.30487 35997 ft 440 kts 257°
2026-05-04 17:24 23.84279 44.20735 35997 ft 439 kts 258°
2026-05-04 17:25 23.81497 44.07736 35997 ft 440 kts 257°
2026-05-04 17:26 23.78673 43.94749 35997 ft 439 kts 257°
2026-05-04 17:27 23.75117 43.78529 35997 ft 440 kts 257°
2026-05-04 17:28 23.72245 43.65555 35997 ft 440 kts 257°
2026-05-04 17:29 23.67951 43.46104 35997 ft 439 kts 257°
2026-05-04 17:31 23.64360 43.29904 35997 ft 440 kts 257°
2026-05-04 17:32 23.60733 43.13684 35997 ft 440 kts 257°
2026-05-04 17:33 23.57837 43.00697 35997 ft 440 kts 257°
2026-05-04 17:34 23.54912 42.87785 35997 ft 440 kts 257°
2026-05-04 17:35 23.51233 42.71584 35997 ft 440 kts 257°
2026-05-04 17:36 23.49757 42.65106 35997 ft 440 kts 257°
2026-05-04 17:36 23.48279 42.58635 35997 ft 440 kts 257°
2026-05-04 17:37 23.46797 42.52162 35997 ft 440 kts 257°
2026-05-04 17:37 23.45312 42.45689 35997 ft 440 kts 257°
2026-05-04 17:38 23.43826 42.39213 35997 ft 440 kts 257°
2026-05-04 17:38 23.42366 42.32738 35997 ft 440 kts 257°
2026-05-04 17:39 23.40146 42.23026 35997 ft 440 kts 257°
2026-05-04 17:39 23.38660 42.16565 35997 ft 441 kts 257°
2026-05-04 17:40 23.37169 42.10099 35997 ft 440 kts 257°
2026-05-04 17:40 23.35696 42.03671 35997 ft 440 kts 257°
2026-05-04 17:41 23.34207 41.97203 35997 ft 441 kts 256°
2026-05-04 17:41 23.32703 41.90742 35997 ft 441 kts 256°
2026-05-04 17:42 23.31194 41.84281 35997 ft 441 kts 256°
2026-05-04 17:42 23.29684 41.77821 35997 ft 441 kts 256°
2026-05-04 17:43 23.27665 41.71529 35997 ft 442 kts 246°
2026-05-04 17:43 23.24641 41.65702 35997 ft 443 kts 239°
2026-05-04 17:44 23.21304 41.60061 35997 ft 444 kts 239°
2026-05-04 17:44 23.17961 41.54425 35997 ft 444 kts 239°
2026-05-04 17:45 23.14613 41.48783 35997 ft 444 kts 239°
2026-05-04 17:45 23.11295 41.43192 35997 ft 444 kts 239°
2026-05-04 17:46 23.07962 41.37551 35997 ft 444 kts 239°
2026-05-04 17:46 23.04628 41.31915 35997 ft 444 kts 239°
2026-05-04 17:47 23.01297 41.26276 35997 ft 444 kts 239°
2026-05-04 17:47 22.97953 41.20649 35997 ft 444 kts 239°
2026-05-04 17:48 22.94598 41.15024 35997 ft 444 kts 239°
2026-05-04 17:48 22.91246 41.09414 35997 ft 444 kts 239°
2026-05-04 17:49 22.87889 41.03798 35997 ft 444 kts 239°
2026-05-04 17:49 22.84531 40.98183 35997 ft 444 kts 238°
2026-05-04 17:50 22.81163 40.92580 35997 ft 444 kts 238°
2026-05-04 17:50 22.77790 40.86973 35997 ft 444 kts 238°
2026-05-04 17:51 22.74420 40.81378 35997 ft 444 kts 238°
2026-05-04 17:51 22.71046 40.75780 35997 ft 444 kts 238°
2026-05-04 17:52 22.67671 40.70187 35997 ft 444 kts 238°
2026-05-04 17:52 22.64333 40.64614 35997 ft 444 kts 238°
2026-05-04 17:53 22.60966 40.59016 35997 ft 444 kts 238°
2026-05-04 17:53 22.57574 40.53393 35997 ft 444 kts 238°
2026-05-04 17:54 22.54220 40.47843 35997 ft 444 kts 238°
2026-05-04 17:54 22.50840 40.42256 35997 ft 444 kts 238°
2026-05-04 17:55 22.47459 40.36676 35997 ft 444 kts 238°
2026-05-04 17:55 22.44076 40.31092 35997 ft 444 kts 238°
2026-05-04 17:56 22.40701 40.25504 35997 ft 444 kts 238°
2026-05-04 17:56 22.37311 40.19930 35997 ft 444 kts 238°
2026-05-04 17:57 22.33921 40.14366 35997 ft 444 kts 238°
2026-05-04 17:57 22.30525 40.08799 35997 ft 444 kts 238°
2026-05-04 17:58 22.27127 40.03232 35997 ft 444 kts 238°
2026-05-04 17:58 22.23738 39.97662 35997 ft 444 kts 238°
2026-05-04 17:59 22.20342 39.92110 35997 ft 444 kts 238°
2026-05-04 18:00 22.15255 39.83812 35997 ft 444 kts 238°
2026-05-04 18:00 22.11850 39.78263 35996 ft 444 kts 238°
2026-05-04 18:01 22.08423 39.72679 35997 ft 444 kts 238°
2026-05-04 18:01 22.05013 39.67131 35997 ft 444 kts 238°
2026-05-04 18:02 21.99917 39.58853 35997 ft 444 kts 238°
2026-05-04 18:02 21.96500 39.53307 35997 ft 444 kts 238°
2026-05-04 18:03 21.93087 39.47771 35997 ft 444 kts 238°
2026-05-04 18:03 21.89711 39.42264 35997 ft 444 kts 238°
2026-05-04 18:04 21.86316 39.36717 35997 ft 444 kts 238°
2026-05-04 18:05 21.81763 39.29345 35997 ft 444 kts 238°
2026-05-04 18:05 21.78341 39.23819 35997 ft 444 kts 238°
2026-05-04 18:06 21.73206 39.15537 35997 ft 444 kts 238°
2026-05-04 18:06 21.69429 39.10279 35997 ft 446 kts 229°
2026-05-04 18:07 21.65133 39.05458 35997 ft 447 kts 228°
2026-05-04 18:07 21.60806 39.00673 35997 ft 447 kts 228°
2026-05-04 18:08 21.56466 38.95880 35996 ft 447 kts 228°
2026-05-04 18:08 21.52132 38.91097 35997 ft 447 kts 228°
2026-05-04 18:09 21.43478 38.81537 35997 ft 446 kts 228°
2026-05-04 18:10 21.39150 38.76748 35997 ft 446 kts 228°